ONEWEB-0087, 45451

Orbit data source: Space-Track

ONEWEB-0087, 45451 is a payload satellite owned by One Web (UK) in LEO that was launched on Sat, 21 Mar 2020 UTC via a SOYUZ-2-1B launch vehicle from the Tyuratam Missile And Space Complex (TTMTR). Payload-class satellites include a variety of spacecraft equipped with specific instruments for various scientific and technological missions. These include communications satellites like Starlink; space stations such as the ISS; scientific satellites like the Hubble; Earth observation satellites from companies like Planet Labs, Umbra, and HawkEye 360; GPS; miniature CubeSats for education and research; and military/defense satellites.

Loading next visibility...
Identifier
45451, 2020-020AD
Orbit
LEO
Country
Flag of UKUK
Related business
Manufacturer
One Web
Mission
Operational Commercial Communications
Bus & Motor
ARROW, Unknown motor
Mass
148 kg wet, ~140 kg dry
Launch date (UTC)
2020-03-21 (6 years ago)
Launch vehicle
SOYUZ-2-1B
Launch site
Tyuratam Missile And Space Complex (TTMTR)
Object type
Payload
Rocket body
Debris
Shape & HBR
Trap Box + 2 Pan, 6.7 m
Radar Cross Section
3.464 m², Large (>1 m²)

Expand to show TLE details & history
Last TLE update: 21 hours ago

TLE from 21 hours ago
0 ONEWEB-0087
1 45451U 20020AD  25347.24862642 -.00000084  00000-0 -27223-3 0  9991
2 45451  87.8875  58.0414 0001983 101.1156 259.0195 13.11417472278214
Epoch: 2025-12-13T05:58Z
TLE epoch observation values (Epoch: 2025-12-13T05:58:01.322Z)
Latitude
-0.00003°
Longitude
-113.64273°
Altitude
1,220.857 km
Speed
7.244 km/s
True Right ascension
03h 52m 09s
True Declination
0° 00' 00"
Sunlit
Object was in full shadow at epoch
Visualization orbit readout
Latitude
Unknown
Longitude
Unknown
Altitude
Unknown
Speed
Unknown
Apparent Right ascension
Unknown
Apparent Declination
Unknown
Sunlit
N/A
Visualization observer readout
Local Sidereal Time
01:41:23
Azimuth
Unknown
Elevation
Unknown
Doppler factor
Unknown
Orbital elements
Apogee altitude
1,216.305 km
Perigee altitude
1,213.293 km
Semi-major axis
7,592.936 km
Eccentricity
0.0002
Inclination
87.8875°
RAAN
58.0414°
Arg. of periapsis
101.1156°
True anomaly
258.99719°
Mean anomaly
259.0195°
Eccentric anomaly
259.00835°
Mean motion
3.28041 °/min
Orbital period
109.74 mins
BSTAR
-0.00027223
Loading maneuver chart data...
Computing Atmospheric mass density...
Loading historical data...
Loading historical data...
Loading historical data...
Loading historical data...
Loading historical data...
Loading historical data...
Loading historical data...

Documentation

Showing up to 5 results
|